User: anonymous   Login
Location: Coffee Creek Observatory
(38.8077°N, 94.7179°W)
Time: 10:12:10
(UTC-05:00)
Language:

Lacrosse 4 Rocket - Orbit

View from above orbital plane
View from above orbital plane
View from above satellite
View from above satellite

Ground track
Ground track

The orbit data is extracted from the following two-line orbital elements,

1 26474U 00047B   16182.83463728  .00000182  00000-0  27062-4 0  9995
2 26474  67.9948  98.4925 0058209 344.6310  15.3061 14.95216588862854
Epoch (UTC): 30 June 2016 20:01:52
Eccentricity: 0.0058209
inclination: 67.9948°
perigee height: 541 km
apogee height: 622 km
right ascension of ascending node: 98.4925°
argument of perigee: 344.6310°
revolutions per day: 14.95216588
mean anomaly at epoch: 15.3061°
orbit number at epoch: 86285

The dashed part of the orbit path shows where the satellite is in the earth's shadow,  

DLR